Probability
0 0 0 0 0 0 0 0 0 0 0 1 4 8 7 3 1 1 1 1 3 6 8 12 19 22 21 19 16 13 9 5 4 5 7 9 9 8 9 11 11 9 5 2 2 1 1 2 2
0 0 0 0 0 0 0 0 0 0 0 1 4 8 7 4 2 2 3 4 7 10 11 14 18 22 21 17 14 12 9 6 5 6 7 8 10 10 10 12 11 9 6 3 2 2 1 1 1
0 0 0 0 0 0 0 0 0 0 0 1 4 7 6 3 3 3 6 9 12 13 13 14 17 20 20 17 15 14 13 11 9 8 7 8 9 9 10 10 9 8 7 5 3 2 1 1 0
0 0 0 0 0 0 0 0 0 0 1 3 6 8 6 3 3 7 11 13 14 14 14 16 19 21 21 20 17 16 16 15 14 13 12 9 7 8 8 8 7 7 7 5 4 3 2 1 1
0 0 0 0 0 0 0 0 1 1 3 7 12 13 10 5 6 11 15 14 13 14 15 18 23 24 23 22 20 17 17 18 18 18 16 10 7 7 8 7 6 6 6 5 3 2 1 1 0
0 0 0 0 0 0 0 0 1 2 6 11 16 18 14 11 12 15 16 15 13 14 16 20 24 24 23 24 23 21 20 20 19 19 16 10 6 6 7 7 6 6 5 4 3 1 1 0 1
0 0 0 0 0 0 0 0 0 2 6 10 14 16 15 16 20 22 21 19 16 16 18 21 22 21 22 23 24 25 25 24 21 17 14 10 6 4 5 6 6 6 6 6 5 3 2 2 2
0 0 0 0 0 0 0 0 0 2 6 9 10 10 13 20 27 28 26 21 18 19 21 23 22 20 18 19 20 24 26 25 21 17 13 10 6 4 4 6 6 7 7 8 7 5 4 4 3
0 0 0 0 0 1 1 1 0 2 6 8 9 9 15 25 30 30 25 20 18 20 22 23 23 19 16 15 16 20 21 21 19 15 12 9 6 4 4 5 6 6 6 6 6 5 5 5 4
0 0 0 0 1 1 2 2 1 2 4 7 9 13 21 26 28 25 22 19 18 20 21 21 21 18 15 14 14 17 17 17 16 14 11 9 6 4 5 5 5 5 4 4 4 4 4 4 4
0 0 0 1 2 2 3 3 2 3 4 6 10 16 22 24 23 21 20 19 20 20 18 17 16 14 12 12 15 17 16 14 12 13 12 10 7 5 5 5 6 6 5 4 4 4 4 4 5
0 0 1 1 2 3 3 3 4 5 6 6 10 16 21 22 20 20 20 20 21 20 17 14 12 10 9 11 14 15 14 10 9 12 13 11 8 6 5 6 7 7 5 4 4 4 5 5 6
0 1 1 1 1 2 3 3 3 6 7 8 11 16 20 21 22 21 21 23 24 21 17 13 12 11 10 11 12 11 8 6 7 10 12 11 9 8 7 8 9 6 4 3 4 4 4 4 5
1 2 2 1 0 1 2 1 1 3 7 10 13 16 18 19 21 21 23 25 25 21 15 13 14 13 13 12 9 7 5 4 5 8 9 9 9 8 8 9 10 7 3 3 4 3 3 3 3
2 2 1 0 0 0 0 0 0 2 6 10 13 15 15 15 16 19 21 22 20 16 13 13 14 14 13 11 8 6 5 5 5 6 7 7 6 5 6 7 8 7 6 5 5 4 2 1 1
1 1 0 0 0 0 0 0 1 4 7 9 10 11 11 11 12 15 17 16 13 11 10 11 13 14 14 11 8 7 7 6 7 7 7 6 5 4 3 4 5 5 6 6 5 5 3 1 0
0 0 0 0 0 1 1 1 2 5 8 10 9 8 8 8 8 10 12 12 10 8 8 9 12 14 14 11 9 9 8 6 6 7 7 6 5 4 4 4 4 4 4 4 5 5 4 1 0
0 0 0 0 1 2 2 2 2 5 9 10 8 6 5 5 5 6 8 9 9 8 8 9 11 13 13 12 10 10 8 6 5 6 6 6 5 4 5 5 4 3 3 4 4 4 3 1 1
0 0 0 1 2 3 2 1 1 4 8 8 6 4 4 4 4 4 5 7 9 9 9 10 11 13 13 12 10 9 8 7 6 5 6 6 5 5 5 4 3 3 4 4 4 3 1 1 2
0 0 0 2 3 2 1 1 3 5 7 6 5 5 4 3 2 3 4 6 8 8 9 11 13 13 13 12 10 9 8 8 5 3 3 5 5 4 4 3 3 3 3 3 2 1 0 1 2
0 0 0 1 2 1 1 1 3 5 6 6 6 6 5 3 3 4 6 7 8 9 9 11 12 13 12 11 10 9 8 6 3 1 1 3 3 3 4 5 5 4 4 4 2 1 0 0 1
0 0 0 1 1 1 0 1 2 4 6 7 7 6 6 5 6 9 10 9 9 9 9 10 12 13 12 11 10 10 8 4 1 0 0 1 1 2 5 7 7 5 5 5 4 2 1 0 0
0 0 0 0 0 0 0 1 2 3 4 6 6 6 7 7 9 12 12 10 10 10 9 10 12 13 12 10 10 11 9 5 3 1 0 0 1 2 4 5 6 5 6 6 5 3 2 1 0
0 0 0 0 0 0 0 1 2 3 3 4 5 6 7 7 9 11 11 11 11 10 9 10 12 11 11 10 9 9 8 6 5 3 1 0 1 1 2 3 4 4 4 5 4 3 3 2 1
0 0 0 0 0 0 0 0 1 3 3 3 4 6 7 7 7 8 8 9 9 9 9 10 10 10 9 9 7 7 7 6 5 3 1 0 0 0 1 1 2 3 3 4 3 3 2 2 1
0 0 0 0 0 0 0 1 1 3 3 3 4 7 7 6 6 6 5 5 6 7 7 8 9 9 8 6 5 5 5 4 2 1 1 0 0 0 0 0 1 1 2 2 3 3 2 1 0
0 0 0 0 0 0 0 1 2 3 3 4 5 7 8 6 5 5 4 4 4 5 6 6 6 7 6 4 3 3 2 2 1 0 0 0 0 0 0 0 0 0 1 1 1 2 2 1 0
0 0 0 0 0 0 0 1 3 3 3 4 5 7 8 6 5 4 2 3 3 5 6 5 4 5 4 2 2 1 1 1 0 0 0 0 0 0 0 0 0 0 0 0 0 1 1 0 0
0 0 0 0 0 0 0 1 2 3 3 3 4 6 7 5 3 2 1 1 2 4 5 4 3 3 3 1 0 0 0 1 0 0 0 0 0 0 0 0 0 0 0 0 0 0 0 0 0
0 0 0 0 0 0 0 0 1 3 3 3 4 4 5 4 3 1 0 0 1 3 3 3 3 3 2 1 0 0 1 1 1 0 0 0 0 0 0 0 0 0 0 0 0 0 0 0 0
Wind_Speed
1 1 1 3 5 4 2 4 2 1 2 2 5 7 7 5 4 4 2 9 12 11 8 11 14 14 15 15 15 15 14 14 14 14 13 13 13 12 12 11 10 10 10 9 8 7 7 7 6
0 1 3 4 5 1 4 3 1 1 3 3 5 6 7 5 5 7 4 8 13 12 8 10 14 14 15 15 15 15 14 14 13 13 13 12 12 11 11 11 10 9 8 8 7 6 6 5 5
1 1 3 4 2 4 4 2 1 1 1 2 3 4 4 5 6 5 6 11 12 11 8 10 15 14 15 15 14 14 14 13 13 13 12 12 11 11 10 10 9 8 7 7 6 5 5 4 3
2 3 4 3 3 6 6 6 2 1 1 2 4 5 3 3 5 7 11 13 12 10 8 11 15 15 14 15 15 14 14 13 13 12 12 11 11 10 9 9 8 8 7 6 5 4 3 3 2
3 4 3 2 5 5 4 5 3 1 1 2 6 5 3 3 9 13 12 13 12 9 7 10 15 15 15 15 15 14 14 13 12 12 11 11 10 9 9 8 7 7 6 5 5 4 3 2 1
3 4 2 3 5 5 3 2 1 3 4 4 6 6 2 4 10 11 12 10 11 10 8 8 14 15 14 14 14 14 13 12 12 11 11 10 9 8 8 7 7 6 5 5 4 3 3 2 2
3 3 3 4 4 4 3 0 2 3 4 2 5 6 3 4 7 11 11 10 9 8 7 6 7 10 12 13 13 13 13 12 11 10 10 9 9 8 7 7 6 6 5 4 4 3 3 3 3
5 3 2 3 3 4 2 2 2 4 2 2 4 7 5 5 8 10 10 9 8 7 6 5 4 5 6 7 12 13 13 12 11 11 10 9 8 8 7 6 5 5 5 5 4 4 4 4 4
3 3 3 4 2 3 3 3 3 4 5 4 4 5 7 10 12 11 9 7 6 7 4 4 4 4 3 5 9 10 11 11 10 9 10 8 4 3 4 5 5 5 4 4 4 5 5 5 4
4 3 7 5 3 2 2 1 1 3 4 3 4 6 10 10 11 12 10 8 7 7 5 4 5 4 4 4 4 4 5 5 5 4 4 3 2 2 3 4 6 6 5 5 5 5 5 4 2
4 6 6 4 4 2 1 2 1 5 2 3 6 9 10 10 9 10 9 8 8 7 6 5 5 4 3 2 3 2 2 2 3 3 4 3 2 1 2 1 2 3 4 3 3 3 2 2 2
2 5 4 4 4 1 1 1 0 2 5 7 9 10 9 8 7 9 9 8 7 8 6 5 5 4 4 3 3 3 2 3 3 3 4 3 2 1 1 1 1 1 1 2 2 1 2 2 2
2 4 3 4 3 2 1 1 1 2 6 9 10 10 9 8 7 7 8 8 8 7 6 5 5 4 4 4 3 3 3 3 3 2 3 3 2 2 1 1 1 1 1 1 1 1 2 2 2
4 2 3 3 4 2 1 2 2 3 7 9 9 9 8 7 7 7 7 7 7 7 6 5 5 5 4 4 3 3 3 3 3 2 2 3 2 1 1 1 1 1 1 1 1 1 1 1 2
2 3 5 4 3 3 1 2 2 4 5 8 9 8 8 6 6 7 8 7 7 7 6 6 6 5 5 3 4 3 3 3 3 2 3 3 2 2 1 1 1 1 1 0 0 1 0 1 1
3 2 4 7 3 3 4 4 4 4 6 6 7 8 8 6 6 7 7 7 6 6 5 6 6 6 5 4 3 3 3 3 2 2 2 2 2 2 2 1 1 1 0 0 0 0 0 1 1
2 2 6 8 4 2 4 4 3 4 6 5 5 6 6 5 4 5 7 8 7 6 6 6 5 6 6 5 3 2 2 3 2 2 2 2 2 2 2 1 1 1 0 0 0 0 0 1 1
6 5 5 6 4 2 3 4 3 4 6 5 5 6 6 5 5 5 6 7 7 6 6 5 5 5 4 4 3 2 2 1 1 2 2 2 2 2 2 1 0 1 1 0 0 0 0 0 1
6 5 6 7 4 2 3 3 3 3 5 4 4 5 5 5 4 4 5 6 6 5 6 5 5 5 4 3 3 3 2 1 1 1 2 2 1 2 2 1 1 1 1 1 0 0 1 1 1
5 4 6 5 2 1 2 3 4 3 5 6 5 5 5 4 3 4 4 5 6 6 6 6 6 6 5 4 3 3 3 2 2 1 1 1 2 2 2 2 1 1 1 0 0 0 0 1 0
5 6 6 4 2 1 2 3 2 1 2 3 3 3 5 6 6 6 5 5 5 6 6 6 6 5 5 4 3 3 2 1 1 0 1 1 2 2 2 2 1 1 1 1 1 1 2 1 1
6 6 5 3 1 3 2 2 5 3 3 3 4 3 5 5 5 5 6 6 6 6 5 5 4 4 4 4 5 5 4 2 2 2 1 1 1 1 2 2 1 1 1 1 2 1 2 2 0
5 3 2 2 1 1 1 2 5 1 3 5 4 4 4 6 6 6 6 7 6 5 5 5 5 4 3 4 5 5 3 2 1 1 1 1 1 1 2 2 1 1 1 2 2 1 1 2 2
2 3 4 4 4 1 3 3 4 3 5 4 4 3 3 5 5 5 4 5 4 3 4 4 5 4 4 4 4 4 4 3 2 1 1 1 1 1 1 2 2 2 2 2 2 2 2 2 2
4 5 4 5 3 4 2 2 4 4 4 6 6 4 2 3 5 5 4 4 4 4 3 3 4 3 3 4 4 4 4 4 4 3 3 2 1 1 2 2 2 2 2 2 2 2 2 2 2
1 7 6 4 4 4 2 1 4 3 1 3 4 5 4 3 4 5 5 5 5 5 4 4 4 3 3 3 3 3 4 3 3 3 3 3 2 2 3 2 2 2 2 2 1 1 2 2 2
2 2 6 5 1 1 2 1 2 1 1 2 3 3 3 4 4 5 5 5 5 5 4 4 5 3 3 3 3 2 3 3 3 3 2 2 2 2 2 2 1 1 1 1 1 1 1 1 1
4 5 4 4 2 2 2 3 4 4 3 3 3 4 3 2 3 3 4 5 4 4 4 4 4 4 3 3 3 3 2 2 2 2 3 2 2 1 1 1 1 1 1 1 1 1 1 1 1
0 1 3 3 4 4 3 5 5 8 7 6 6 6 5 5 4 3 3 4 4 3 4 4 3 3 3 3 3 2 1 1 1 2 2 2 2 2 2 2 2 1 1 1 1 1 1 1 1
2 3 5 4 2 3 3 6 4 6 5 5 5 5 5 5 5 4 4 3 4 4 4 4 3 3 3 3 3 2 2 1 1 1 1 1 2 2 2 2 2 2 1 1 1 1 1 1 1
Wind_Direction
253 256 106 63 53 46 274 257 230 336 34 63 80 86 86 84 118 148 174 145 136 141 149 145 139 136 134 132 131 129 126 124 122 120 119 118 117 117 116 117 117 118 120 121 121 119 116 113 114
190 178 61 60 79 28 277 256 207 232 144 115 81 83 79 78 94 117 129 145 138 140 145 145 141 137 136 135 134 134 132 131 129 127 127 126 124 121 121 120 119 118 119 121 122 121 119 119 121
245 151 84 72 111 191 245 263 167 45 89 82 95 73 94 121 120 139 153 142 134 135 142 148 143 140 139 139 138 138 137 136 135 134 134 131 128 126 124 124 125 126 125 126 127 125 124 123 119
68 46 51 68 256 237 224 257 225 214 8 39 100 79 70 97 132 144 141 137 132 136 144 149 144 142 142 144 144 142 141 140 140 139 138 136 134 132 133 133 131 130 130 135 138 138 138 139 143
70 77 51 327 263 258 246 243 227 162 114 89 94 95 73 54 108 128 136 136 136 140 147 150 146 147 147 148 149 147 146 147 146 144 142 142 140 140 142 141 138 138 140 146 152 154 155 167 194
53 72 86 263 265 269 266 219 116 90 103 98 99 100 80 114 120 135 140 140 140 144 147 149 150 151 152 151 152 151 151 151 149 148 148 148 147 147 148 147 149 149 152 157 165 174 180 203 226
121 112 210 238 273 280 278 332 72 100 96 93 113 102 110 129 133 133 133 130 130 137 142 146 154 154 154 154 155 156 156 156 153 153 153 153 154 155 154 157 163 164 168 178 190 207 221 232 238
157 115 281 279 279 282 297 2 49 72 70 72 103 124 157 172 134 120 116 118 121 124 132 138 143 145 152 158 161 159 159 159 156 156 156 158 162 166 167 169 173 180 194 204 213 228 243 250 251
124 82 260 249 229 273 322 24 1 58 82 55 78 126 151 141 127 118 114 112 121 124 127 141 136 134 147 160 168 163 163 162 160 162 164 163 165 171 175 183 187 196 207 219 234 245 255 261 264
126 174 239 229 205 219 310 348 310 67 74 69 78 100 122 125 128 130 133 136 136 140 144 145 141 141 148 163 155 162 167 162 160 162 165 157 154 182 187 205 205 211 222 237 252 262 267 270 266
173 201 233 251 242 210 345 318 330 125 114 164 146 138 135 131 134 136 140 147 151 155 151 149 150 150 152 143 148 155 155 150 152 157 158 151 153 181 192 197 224 233 237 247 269 273 267 261 249
242 252 222 239 262 278 248 280 2 158 179 159 147 143 136 137 143 139 138 143 145 143 141 140 142 145 148 138 146 149 146 155 161 168 161 151 152 167 187 201 214 229 254 249 257 261 260 259 244
255 257 255 241 258 255 254 263 132 175 149 145 138 131 138 145 143 134 132 131 133 136 141 147 143 144 143 133 142 142 147 158 158 155 158 155 154 171 182 203 192 225 250 252 270 274 269 270 264
244 258 281 273 266 264 239 276 115 209 147 143 138 138 139 144 140 130 127 130 136 142 152 159 153 147 135 135 142 144 142 143 143 134 137 143 146 147 162 172 172 211 228 232 243 257 264 262 258
319 334 315 282 268 256 86 335 212 190 141 139 144 141 130 138 144 142 145 144 144 149 157 161 154 146 139 147 154 141 138 134 134 140 145 145 140 143 155 164 199 224 225 215 347 309 346 305 307
1 351 292 277 260 251 123 240 244 164 135 144 149 147 142 152 160 155 150 144 146 144 152 156 157 150 148 156 149 133 136 134 144 147 151 160 159 153 150 151 207 225 169 133 172 8 20 324 314
343 271 268 286 267 206 142 214 222 151 133 143 147 150 150 153 162 159 154 150 146 148 158 159 150 155 157 151 137 124 128 136 145 145 161 175 170 156 145 165 210 190 136 160 231 97 170 266 299
249 252 269 274 276 134 159 211 205 157 137 142 148 149 153 163 176 172 161 151 144 152 160 154 147 154 150 136 118 104 96 108 130 154 174 164 168 161 143 158 211 148 136 47 118 173 309 230 263
232 252 266 268 253 148 189 202 212 183 148 154 165 160 160 168 172 163 158 150 147 156 152 154 151 164 155 149 152 147 148 155 154 172 170 154 150 151 142 154 170 153 156 204 199 89 11 334 7
233 255 271 280 270 175 179 235 220 186 179 175 178 174 166 166 169 161 161 151 159 172 166 162 169 172 169 166 163 160 152 167 174 178 166 173 159 169 162 164 182 180 168 161 104 111 81 307 48
239 227 238 241 302 285 111 313 269 207 198 180 171 173 170 181 183 177 169 169 165 172 175 172 176 169 168 152 132 123 95 73 77 113 210 221 182 179 178 172 178 175 174 193 199 170 158 235 303
249 240 216 202 205 269 170 253 275 207 208 202 189 190 186 185 184 185 179 176 176 177 174 166 162 161 157 146 145 151 159 170 193 187 206 240 208 192 194 182 177 179 187 202 212 180 170 157 226
225 226 191 207 196 290 310 156 279 186 216 217 200 189 186 175 181 185 179 177 173 167 165 161 155 156 155 150 155 156 156 167 167 156 171 209 230 203 203 186 176 188 195 204 197 164 153 160 170
167 41 19 35 67 314 260 168 267 227 221 210 207 195 180 170 174 177 167 157 151 147 149 151 152 158 157 154 157 155 157 157 151 170 182 211 233 246 230 199 193 202 204 204 201 193 181 187 177
75 78 25 359 7 261 251 143 247 254 206 182 188 195 187 174 161 155 151 147 147 141 139 141 145 157 165 161 164 170 170 169 174 187 192 200 212 224 231 215 207 212 215 211 201 189 200 199 191
198 140 158 203 231 269 328 206 261 268 189 156 161 170 155 158 166 159 162 161 155 153 151 147 146 152 157 155 164 180 179 177 187 198 197 203 206 210 212 212 216 222 227 225 202 204 220 213 209
171 202 176 149 216 305 287 268 298 326 62 108 138 144 155 165 170 166 158 153 152 151 155 151 146 139 147 151 154 177 191 185 189 192 192 200 202 200 200 204 229 244 229 210 168 192 228 206 215
167 160 102 118 160 253 271 233 230 229 225 195 170 167 169 158 166 167 161 156 157 160 152 143 148 157 160 150 159 175 198 194 181 170 185 194 206 206 182 202 206 228 231 202 150 153 190 172 220
336 117 124 134 159 165 233 260 222 199 200 190 190 187 181 177 182 177 171 166 158 153 145 147 157 157 154 159 165 160 176 182 173 179 195 194 192 195 202 214 213 216 220 189 158 190 201 196 242
179 177 145 151 221 165 179 262 267 186 184 176 188 193 183 172 175 177 162 155 153 156 155 150 157 160 167 168 162 165 171 150 160 185 196 186 183 198 207 209 205 210 205 191 175 199 195 198 215